Time,TemperatureF,DewpointF,PressureIn,WindDirection,WindDirectionDegrees,WindSpeedMPH,WindSpeedGustMPH,Humidity,HourlyPrecipIn,Conditions,Clouds,dailyrainin,SolarRadiationWatts/m^2,SoftwareType,DateUTC
2013-03-15 00:02:00,33.0,24.0,-100.00,South,185,0.0,0.0,69,0.00,,,0.00,0.000000,,2013-03-15 07:02:00,
2013-03-15 00:32:00,33.0,23.0,-100.00,SW,224,0.0,0.0,65,0.00,,,0.00,0.000000,,2013-03-15 07:32:00,
2013-03-15 00:42:00,33.0,23.0,-100.00,SW,224,0.0,0.0,65,0.00,,,0.00,0.000000,,2013-03-15 07:42:00,
2013-03-15 00:52:00,33.0,23.0,-100.00,SW,224,0.0,0.0,65,0.00,,,0.00,0.000000,,2013-03-15 07:52:00,
2013-03-15 01:02:00,33.0,23.0,-100.00,SW,224,0.0,0.0,65,0.00,,,0.00,0.000000,,2013-03-15 08:02:00,
2013-03-15 01:33:00,33.0,24.0,-100.00,South,174,0.0,4.0,69,0.00,,,0.00,0.000000,,2013-03-15 08:33:00,
2013-03-15 01:42:00,33.0,24.0,-100.00,South,174,0.0,4.0,69,0.00,,,0.00,0.000000,,2013-03-15 08:42:00,
2013-03-15 01:52:00,33.0,24.0,-100.00,South,174,0.0,4.0,69,0.00,,,0.00,0.000000,,2013-03-15 08:52:00,
2013-03-15 02:01:00,33.0,24.0,-100.00,South,174,0.0,4.0,69,0.00,,,0.00,0.000000,,2013-03-15 09:01:00,
2013-03-15 02:33:00,32.0,24.0,-100.00,South,169,1.0,4.0,73,0.00,,,0.00,0.000000,,2013-03-15 09:33:00,
2013-03-15 02:43:00,32.0,24.0,-100.00,South,169,1.0,4.0,73,0.00,,,0.00,0.000000,,2013-03-15 09:43:00,
2013-03-15 02:53:00,32.0,24.0,-100.00,South,169,1.0,4.0,73,0.00,,,0.00,0.000000,,2013-03-15 09:53:00,
2013-03-15 03:02:00,32.0,24.0,-100.00,South,169,1.0,4.0,73,0.00,,,0.00,0.000000,,2013-03-15 10:02:00,
2013-03-15 03:33:00,32.0,24.0,-100.00,South,181,0.0,4.0,73,0.00,,,0.00,0.000000,,2013-03-15 10:33:00,
2013-03-15 03:43:00,32.0,24.0,-100.00,South,181,0.0,4.0,73,0.00,,,0.00,0.000000,,2013-03-15 10:43:00,
2013-03-15 03:52:00,32.0,24.0,-100.00,South,181,0.0,4.0,73,0.00,,,0.00,0.000000,,2013-03-15 10:52:00,
2013-03-15 04:02:00,32.0,24.0,-100.00,South,181,0.0,4.0,73,0.00,,,0.00,0.000000,,2013-03-15 11:02:00,
2013-03-15 04:23:00,32.0,26.0,-100.00,SSE,167,0.0,3.0,77,0.00,,,0.00,0.000000,,2013-03-15 11:23:00,
2013-03-15 04:32:00,32.0,26.0,-100.00,SSE,167,0.0,3.0,77,0.00,,,0.00,0.000000,,2013-03-15 11:32:00,
2013-03-15 04:42:00,32.0,26.0,-100.00,SSE,167,0.0,3.0,77,0.00,,,0.00,0.000000,,2013-03-15 11:42:00,
2013-03-15 04:52:00,32.0,26.0,-100.00,SSE,167,0.0,3.0,77,0.00,,,0.00,0.000000,,2013-03-15 11:52:00,
2013-03-15 05:01:00,32.0,26.0,-100.00,SSE,167,0.0,3.0,77,0.00,,,0.00,0.000000,,2013-03-15 12:01:00,
2013-03-15 05:32:00,31.0,23.0,-100.00,South,185,0.0,3.0,73,0.00,,,0.00,0.000000,,2013-03-15 12:32:00,
2013-03-15 05:42:00,31.0,23.0,-100.00,South,185,0.0,3.0,73,0.00,,,0.00,0.000000,,2013-03-15 12:42:00,
2013-03-15 05:52:00,31.0,23.0,-100.00,South,185,0.0,3.0,73,0.00,,,0.00,0.000000,,2013-03-15 12:52:00,
2013-03-15 06:02:00,31.0,23.0,-100.00,South,185,0.0,3.0,73,0.00,,,0.00,0.000000,,2013-03-15 13:02:00,
2013-03-15 06:32:00,31.0,22.0,-100.00,South,176,0.0,3.0,70,0.00,,,0.00,0.000000,,2013-03-15 13:32:00,
2013-03-15 06:42:00,31.0,22.0,-100.00,South,176,0.0,3.0,70,0.00,,,0.00,0.000000,,2013-03-15 13:42:00,
2013-03-15 06:52:00,31.0,22.0,-100.00,South,176,0.0,3.0,70,0.00,,,0.00,0.000000,,2013-03-15 13:52:00,
2013-03-15 07:02:00,31.0,22.0,-100.00,South,176,0.0,3.0,70,0.00,,,0.00,0.000000,,2013-03-15 14:02:00,
2013-03-15 07:33:00,31.0,25.0,-100.00,SSE,157,2.0,5.0,78,0.00,,,0.00,8.000000,,2013-03-15 14:33:00,
2013-03-15 07:42:00,31.0,25.0,-100.00,SSE,157,2.0,5.0,78,0.00,,,0.00,8.000000,,2013-03-15 14:42:00,
2013-03-15 07:52:00,31.0,25.0,-100.00,SSE,157,2.0,5.0,78,0.00,,,0.00,8.000000,,2013-03-15 14:52:00,
2013-03-15 08:02:00,31.0,25.0,-100.00,SSE,157,2.0,5.0,78,0.00,,,0.00,8.000000,,2013-03-15 15:02:00,
2013-03-15 08:33:00,50.0,19.0,-100.00,South,191,3.0,4.0,29,0.00,,,0.00,129.000000,,2013-03-15 15:33:00,
2013-03-15 09:32:00,61.0,25.0,-100.00,South,175,6.0,10.0,25,0.00,,,0.00,383.000000,,2013-03-15 16:32:00,
2013-03-15 10:32:00,62.0,22.0,-100.00,South,179,6.0,12.0,21,0.00,,,0.00,581.000000,,2013-03-15 17:32:00,
2013-03-15 10:42:00,62.0,22.0,-100.00,South,179,6.0,12.0,21,0.00,,,0.00,581.000000,,2013-03-15 17:42:00,
2013-03-15 10:52:00,62.0,22.0,-100.00,South,179,6.0,12.0,21,0.00,,,0.00,581.000000,,2013-03-15 17:52:00,
2013-03-15 11:02:00,62.0,22.0,-100.00,South,179,6.0,12.0,21,0.00,,,0.00,581.000000,,2013-03-15 18:02:00,
2013-03-15 11:22:00,63.0,20.0,-100.00,North,353,9.0,19.0,19,0.00,,,0.00,422.000000,,2013-03-15 18:22:00,
2013-03-15 11:32:00,63.0,20.0,-100.00,North,353,9.0,19.0,19,0.00,,,0.00,422.000000,,2013-03-15 18:32:00,
2013-03-15 11:42:00,63.0,20.0,-100.00,North,353,9.0,19.0,19,0.00,,,0.00,422.000000,,2013-03-15 18:42:00,
2013-03-15 11:52:00,63.0,20.0,-100.00,North,353,9.0,19.0,19,0.00,,,0.00,422.000000,,2013-03-15 18:52:00,
2013-03-15 12:01:00,63.0,20.0,-100.00,North,353,9.0,19.0,19,0.00,,,0.00,422.000000,,2013-03-15 19:01:00,
2013-03-15 12:32:00,65.0,23.0,-100.00,West,279,6.0,20.0,20,0.00,,,0.00,787.000000,,2013-03-15 19:32:00,
2013-03-15 12:42:00,65.0,23.0,-100.00,West,279,6.0,20.0,20,0.00,,,0.00,787.000000,,2013-03-15 19:42:00,
2013-03-15 12:52:00,65.0,23.0,-100.00,West,279,6.0,20.0,20,0.00,,,0.00,787.000000,,2013-03-15 19:52:00,
2013-03-15 13:02:00,65.0,23.0,-100.00,West,279,6.0,20.0,20,0.00,,,0.00,787.000000,,2013-03-15 20:02:00,
2013-03-15 13:32:00,64.0,17.0,-100.00,ENE,57,6.0,16.0,16,0.00,,,0.00,926.000000,,2013-03-15 20:32:00,
2013-03-15 13:42:00,64.0,17.0,-100.00,ENE,57,6.0,16.0,16,0.00,,,0.00,926.000000,,2013-03-15 20:42:00,
2013-03-15 13:52:00,64.0,17.0,-100.00,ENE,57,6.0,16.0,16,0.00,,,0.00,926.000000,,2013-03-15 20:52:00,
2013-03-15 14:02:00,64.0,17.0,-100.00,ENE,57,6.0,16.0,16,0.00,,,0.00,926.000000,,2013-03-15 21:02:00,
2013-03-15 14:33:00,63.0,20.0,-100.00,SW,235,6.0,17.0,19,0.00,,,0.00,854.000000,,2013-03-15 21:33:00,
2013-03-15 14:52:00,63.0,20.0,-100.00,SW,235,6.0,17.0,19,0.00,,,0.00,854.000000,,2013-03-15 21:52:00,
2013-03-15 15:02:00,63.0,20.0,-100.00,SW,235,6.0,17.0,19,0.00,,,0.00,854.000000,,2013-03-15 22:02:00,
2013-03-15 15:33:00,67.0,23.0,-100.00,ENE,66,5.0,18.0,19,0.00,,,0.00,665.000000,,2013-03-15 22:33:00,
2013-03-15 15:42:00,67.0,23.0,-100.00,ENE,66,5.0,18.0,19,0.00,,,0.00,665.000000,,2013-03-15 22:42:00,
2013-03-15 15:52:00,67.0,23.0,-100.00,ENE,66,5.0,18.0,19,0.00,,,0.00,665.000000,,2013-03-15 22:52:00,
2013-03-15 16:02:00,67.0,23.0,-100.00,ENE,66,5.0,18.0,19,0.00,,,0.00,665.000000,,2013-03-15 23:02:00,
2013-03-15 16:22:00,63.0,22.0,-100.00,SE,136,5.0,13.0,21,0.00,,,0.00,553.000000,,2013-03-15 23:22:00,
2013-03-15 16:32:00,63.0,22.0,-100.00,SE,136,5.0,13.0,21,0.00,,,0.00,553.000000,,2013-03-15 23:32:00,
2013-03-15 16:42:00,63.0,22.0,-100.00,SE,136,5.0,13.0,21,0.00,,,0.00,553.000000,,2013-03-15 23:42:00,
2013-03-15 16:53:00,63.0,22.0,-100.00,SE,136,5.0,13.0,21,0.00,,,0.00,553.000000,,2013-03-15 23:53:00,
2013-03-15 17:02:00,63.0,22.0,-100.00,SE,136,5.0,13.0,21,0.00,,,0.00,553.000000,,2013-03-16 00:02:00,
2013-03-15 17:32:00,60.0,22.0,-100.00,SSE,165,4.0,16.0,23,0.00,,,0.00,260.000000,,2013-03-16 00:32:00,
2013-03-15 17:42:00,60.0,22.0,-100.00,SSE,165,4.0,16.0,23,0.00,,,0.00,260.000000,,2013-03-16 00:42:00,
2013-03-15 17:52:00,60.0,22.0,-100.00,SSE,165,4.0,16.0,23,0.00,,,0.00,260.000000,,2013-03-16 00:52:00,
2013-03-15 18:02:00,60.0,22.0,-100.00,SSE,165,4.0,16.0,23,0.00,,,0.00,260.000000,,2013-03-16 01:02:00,
2013-03-15 18:32:00,57.0,22.0,-100.00,NE,35,3.0,14.0,26,0.00,,,0.00,80.000000,,2013-03-16 01:32:00,
2013-03-15 18:42:00,57.0,22.0,-100.00,NE,35,3.0,14.0,26,0.00,,,0.00,80.000000,,2013-03-16 01:42:00,
2013-03-15 18:52:00,57.0,22.0,-100.00,NE,35,3.0,14.0,26,0.00,,,0.00,80.000000,,2013-03-16 01:52:00,
2013-03-15 19:02:00,57.0,22.0,-100.00,NE,35,3.0,14.0,26,0.00,,,0.00,80.000000,,2013-03-16 02:02:00,
2013-03-15 19:33:00,50.0,26.0,-100.00,SSE,164,2.0,15.0,39,0.00,,,0.00,11.000000,,2013-03-16 02:33:00,
2013-03-15 19:43:00,50.0,26.0,-100.00,SSE,164,2.0,15.0,39,0.00,,,0.00,11.000000,,2013-03-16 02:43:00,
2013-03-15 19:52:00,50.0,26.0,-100.00,SSE,164,2.0,15.0,39,0.00,,,0.00,11.000000,,2013-03-16 02:52:00,
2013-03-15 20:02:00,50.0,26.0,-100.00,SSE,164,2.0,15.0,39,0.00,,,0.00,11.000000,,2013-03-16 03:02:00,
2013-03-15 20:33:00,49.0,24.0,-100.00,South,171,5.0,9.0,37,0.00,,,0.00,0.000000,,2013-03-16 03:33:00,
2013-03-15 20:43:00,49.0,24.0,-100.00,South,171,5.0,9.0,37,0.00,,,0.00,0.000000,,2013-03-16 03:43:00,
2013-03-15 20:53:00,49.0,24.0,-100.00,South,171,5.0,9.0,37,0.00,,,0.00,0.000000,,2013-03-16 03:53:00,
2013-03-15 21:02:00,49.0,24.0,-100.00,South,171,5.0,9.0,37,0.00,,,0.00,0.000000,,2013-03-16 04:02:00,
2013-03-15 21:33:00,45.0,24.0,-100.00,SSE,167,5.0,10.0,44,0.00,,,0.00,0.000000,,2013-03-16 04:33:00,
2013-03-15 21:43:00,45.0,24.0,-100.00,SSE,167,5.0,10.0,44,0.00,,,0.00,0.000000,,2013-03-16 04:43:00,
2013-03-15 21:53:00,45.0,24.0,-100.00,SSE,167,5.0,10.0,44,0.00,,,0.00,0.000000,,2013-03-16 04:53:00,
2013-03-15 22:02:00,45.0,24.0,-100.00,SSE,167,5.0,10.0,44,0.00,,,0.00,0.000000,,2013-03-16 05:02:00,
2013-03-15 22:32:00,44.0,25.0,-100.00,SSE,163,0.0,10.0,47,0.00,,,0.00,0.000000,,2013-03-16 05:32:00,
2013-03-15 22:42:00,44.0,25.0,-100.00,SSE,163,0.0,10.0,47,0.00,,,0.00,0.000000,,2013-03-16 05:42:00,
2013-03-15 22:52:00,44.0,25.0,-100.00,SSE,163,0.0,10.0,47,0.00,,,0.00,0.000000,,2013-03-16 05:52:00,
2013-03-15 23:02:00,44.0,25.0,-100.00,SSE,163,0.0,10.0,47,0.00,,,0.00,0.000000,,2013-03-16 06:02:00,
2013-03-15 23:22:00,41.0,24.0,-100.00,SSE,160,5.0,8.0,51,0.00,,,0.00,0.000000,,2013-03-16 06:22:00,
2013-03-15 23:32:00,41.0,24.0,-100.00,SSE,160,5.0,8.0,51,0.00,,,0.00,0.000000,,2013-03-16 06:32:00,
2013-03-15 23:42:00,41.0,24.0,-100.00,SSE,160,5.0,8.0,51,0.00,,,0.00,0.000000,,2013-03-16 06:42:00,
2013-03-15 23:52:00,41.0,24.0,-100.00,SSE,160,5.0,8.0,51,0.00,,,0.00,0.000000,,2013-03-16 06:52:00,